This is the latest recevied weather packets stored in our database for station/object YO3FVR-WX. If no packets are shown the sender has not sent any weather packets the latest 10 day(s).
| Time | Temp. | Humidity | Pressure | Rain* | Wind** | Luminosity | Snow |
|---|---|---|---|---|---|---|---|
| 1777498967 | 10.56° C | 68% | 1015.9 hPa | 0 mm | - | - | - |
| 1777497766 | 10.56° C | 66% | 1015.7 hPa | 0 mm | - | - | - |
| 1777496566 | 10.56° C | 64% | 1015.6 hPa | 0 mm | - | - | - |
| 1777495337 | 10.56° C | 63% | 1015.4 hPa | 0 mm | - | - | - |
| 1777494106 | 10.56° C | 63% | 1015.4 hPa | 0 mm | - | - | - |
| 1777492906 | 10.56° C | 65% | 1015.3 hPa | 0 mm | - | - | - |
| 1777491677 | 10.56° C | 67% | 1015.1 hPa | 0 mm | - | - | - |
| 1777490476 | 10.56° C | 67% | 1015.3 hPa | 0 mm | - | - | - |
| 1777489246 | 11.11° C | 66% | 1015.3 hPa | 0 mm | - | - | - |
| 1777488017 | 11.67° C | 64% | 1015.2 hPa | 0 mm | - | - | - |
| 1777486816 | 11.67° C | 62% | 1015 hPa | 0 mm | - | - | - |
| 1777485587 | 12.22° C | 61% | 1014.6 hPa | 0 mm | - | - | - |
| 1777484386 | 12.22° C | 60% | 1014.2 hPa | 0 mm | - | - | - |
| 1777483157 | 12.78° C | 58% | 1014.2 hPa | 0 mm | - | - | - |
| 1777481956 | 13.33° C | 58% | 1014 hPa | 0 mm | - | - | - |
| 1777480756 | 13.33° C | 57% | 1013.9 hPa | 0 mm | - | - | - |
| 1777479527 | 13.89° C | 56% | 1013.8 hPa | 0 mm | - | - | - |
| 1777478327 | 13.89° C | 56% | 1013.9 hPa | 0 mm | - | - | - |
| 1777477099 | 14.44° C | 55% | 1013.9 hPa | 0 mm | - | - | - |
| 1777475897 | 15.56° C | 53% | 1013.9 hPa | 0 mm | - | - | - |
| 1777474667 | 16.11° C | 51% | 1013.9 hPa | 0 mm | - | - | - |
| 1777473466 | 16.11° C | 51% | 1013.9 hPa | 0 mm | - | - | - |
| 1777472239 | 16.11° C | 50% | 1013.5 hPa | 0 mm | - | - | - |
| 1777471008 | 16.11° C | 48% | 1013.7 hPa | 0 mm | - | - | - |
| 1777469807 | 17.22° C | 45% | 1013.4 hPa | 0 mm | - | - | - |
* Rain latest hour (hover to see other rain measurements)
** Current wind speed in m/s (hover to see current wind gust speed)